{"data":{"norad_id":67807,"intl_designator":"2026-032L","name":"STARLINK-36382","alt_names":[],"object_type":"PAYLOAD","status":"ACTIVE","operator":null,"country":"US","launch_date":"2026-02-15","launch_site_code":"AFWTR","launch_vehicle":null,"mission":null,"orbit_class":"UNKNOWN","rcs_meters":null,"size_class":null,"mass_kg":null,"dimensions":null,"purposes":["comms"],"wikipedia_slug":null,"has_3d_model":false,"image_url":null,"decayed_at":null,"tle_current":{"epoch":"2026-09-19T18:42:14.830848Z","epoch_age_seconds":128753,"freshness":"FRESH","line1":"1 67807U 26032L   26262.77933832  .00012521  00000+0  38920-3 0  9996","line2":"2 67807  97.2855  89.1775 0002738  99.6626 260.4926 15.33467674 34700","mean_motion":15.33467674,"eccentricity":0.0002738,"inclination_deg":97.2855,"raan_deg":89.1775,"arg_perigee_deg":99.6626,"mean_anomaly_deg":260.4926,"bstar":0.0003892,"rev_number":3470,"period_min":93.904816150692,"perigee_km":463.60193227696,"apogee_km":467.34949459884,"semimajor_km":6843.6127134379,"source":"CELESTRAK","updated_at":"2026-09-20T09:00:43.663770Z"}}}